星链-4256 (STARLINK-4256 )

导读

STARLINK-4256是美国太空探索技术公司(SpaceX)星链(Starlink)星座的卫星。它于2022年7月7日发射,属于星链低轨互联网星座组网卫星,工作在近地轨道,旨在为全球提供高速低延迟宽带互联网服务,推动星链星座全球覆盖组网进程,支撑卫星互联网服务落地。

基本信息
目录编号:
52994
目录名称:
STARLINK-4256
国际标识:
2022-076J
轨道中心:
EARTH
卫星名称:
星链-4256
卫星全名:
星链-4256 (STARLINK-4256 )
卫星状态:
在轨 (已飞行1520 天)
发射日期:
2022-07-07 UTC
国别 :
美国 (US)
星等 :
--
轨道信息
数据来源 国际轨道数据
星历时间: 2026-09-04T14:46:01+0800
6小时前
查看轨道信息
半长轴: 6840.939km
偏心率: 0.000096
轨道倾角: 53.161°
近地点辐角 97.761°
升交点赤经 359.183°
平近点角 262.350°
近地点: 462.145km
远地点: 463.459km
周期: 93.850分钟
每日圈数: 15.343671
详细信息
固有亮度:
5
最大亮度:
2.5
卫星平台:
Starlink v1.5
覆盖范围:
全球
运营商:
太空探索技术公司
运营商所在国:
美国
制造商(研发单位):
太空探索技术公司
制造商所在国:
美国
使用方式:
暂无
卫星简介
星链(Starlink)计划是由太空探索技术公司(SpaceX)提出的一个巨型低轨卫星互联网星座项目,计划在2019年至2024年间在太空搭建由约1.2万颗卫星组成的“星链”网络,其中1584颗将部署在地球上空550千米处的近地轨道,并从2020年开始工作。该卫星仍在工作。
2D轨道图
3D轨道图
轨道高度分析图
轨道倾角分析图
轨道综合分析图
查看轨道综合分析图
交会数据列表
事件ID 空间交会对象 最接近时刻(TCA) 交会距离 交会风险概率(CRP) 交会风险指数(CRI) 操作
CDM_260906-122404-623205-299421
2026-09-06T
12:24:44+0000
1.010 km
极远距离
1.841689E-5 中风险 0.6
CDM_260906-134605-299406-612021
2026-09-06T
13:46:07+0000
1.242 km
极远距离
7.719893E-6 低风险 0.53
CDM_260906-121205-299406-612021
2026-09-06T
12:12:20+0000
2.044 km
极远距离
1.7307E-6 低风险 0.4
CDM_260903-144004-738805-299422
2026-09-03T
14:40:59+0000
1.855 km
极远距离
1.678851E-6 低风险 0.4
CDM_260829-101903-947105-299422
IPEX (39471)
2026-08-29T
10:19:06+0000
2.720 km
极远距离
1.555167E-6 低风险 0.39
CDM_260905-222305-299405-937721
2026-09-05T
22:23:19+0000
2.536 km
极远距离
1.2981E-6 低风险 0.37
CDM_260905-194605-186905-299421
2026-09-05T
19:46:42+0000
2.847 km
极远距离
9.931276E-7 极低风险 0.35
CDM_260906-151905-299406-612021
2026-09-06T
15:19:55+0000
2.783 km
极远距离
9.775505E-7 极低风险 0.35